Вернуться в каталог

GENMAT-1

АктивенНаукаSSO
NORAD 58276·PAYLOAD·🇺🇸 United States

Запущен Nov 11, 2023 с Vandenberg Space Force Base

Loading…

Ближайшие Пролёты (ближайшие 24 часа)

TLE

СвежийSource: Space-Track

Эпоха: Sep 14, 2026, 11:20 UTC

1 58276U 23174W   26257.47245204  .00007714  00000-0  22195-3 0  9996
2 58276  97.3615 335.2519 0005347 212.4082 147.6834 15.36048769158676

Отслеживайте GENMAT-1 в реальном времени с AllMySat

Download on the App Store